Time,TemperatureF,DewpointF,PressureIn,WindDirection,WindDirectionDegrees,WindSpeedMPH,WindSpeedGustMPH,Humidity,HourlyPrecipIn,Conditions,Clouds,dailyrainin,SoftwareType,DateUTC
2013-09-03 00:02:00,65.0,51.0,30.29,North,-999,-999.0,-999.0,60,-99.99,,,-99.99,,2013-09-03 06:02:00,
2013-09-03 00:22:00,63.0,51.0,30.30,North,-999,-999.0,-999.0,65,-99.99,,,-99.99,,2013-09-03 06:22:00,
2013-09-03 00:32:00,63.0,51.0,30.30,North,-999,-999.0,-999.0,65,-99.99,,,-99.99,,2013-09-03 06:32:00,
2013-09-03 00:52:00,61.0,52.0,30.30,North,-999,-999.0,-999.0,71,-99.99,,,-99.99,,2013-09-03 06:52:00,
2013-09-03 01:02:00,61.0,52.0,30.30,North,-999,-999.0,-999.0,71,-99.99,,,-99.99,,2013-09-03 07:02:00,
2013-09-03 01:22:00,61.0,51.0,30.31,North,-999,-999.0,-999.0,71,-99.99,,,-99.99,,2013-09-03 07:22:00,
2013-09-03 01:32:00,61.0,51.0,30.31,North,-999,-999.0,-999.0,71,-99.99,,,-99.99,,2013-09-03 07:32:00,
2013-09-03 01:52:00,59.0,51.0,30.30,North,-999,-999.0,-999.0,74,-99.99,,,-99.99,,2013-09-03 07:52:00,
2013-09-03 02:03:00,59.0,51.0,30.30,North,-999,-999.0,-999.0,74,-99.99,,,-99.99,,2013-09-03 08:03:00,
2013-09-03 02:22:00,57.0,52.0,30.31,North,-999,-999.0,-999.0,82,-99.99,,,-99.99,,2013-09-03 08:22:00,
2013-09-03 02:32:00,57.0,52.0,30.31,North,-999,-999.0,-999.0,82,-99.99,,,-99.99,,2013-09-03 08:32:00,
2013-09-03 02:52:00,57.0,51.0,30.32,North,-999,-999.0,-999.0,78,-99.99,,,-99.99,,2013-09-03 08:52:00,
2013-09-03 03:01:00,57.0,51.0,30.32,North,-999,-999.0,-999.0,78,-99.99,,,-99.99,,2013-09-03 09:01:00,
2013-09-03 03:21:00,56.0,51.0,30.31,North,-999,-999.0,-999.0,82,-99.99,,,-99.99,,2013-09-03 09:21:00,
2013-09-03 03:33:00,56.0,51.0,30.31,North,-999,-999.0,-999.0,82,-99.99,,,-99.99,,2013-09-03 09:33:00,
2013-09-03 03:53:00,58.0,50.0,30.31,North,-999,-999.0,-999.0,74,-99.99,,,-99.99,,2013-09-03 09:53:00,
2013-09-03 04:03:00,58.0,50.0,30.31,North,-999,-999.0,-999.0,74,-99.99,,,-99.99,,2013-09-03 10:03:00,
2013-09-03 04:23:00,54.0,49.0,30.32,North,-999,-999.0,-999.0,84,-99.99,,,-99.99,,2013-09-03 10:23:00,
2013-09-03 04:33:00,54.0,49.0,30.32,North,-999,-999.0,-999.0,84,-99.99,,,-99.99,,2013-09-03 10:33:00,
2013-09-03 04:53:00,56.0,49.0,30.32,North,-999,-999.0,-999.0,77,-99.99,,,-99.99,,2013-09-03 10:53:00,
2013-09-03 05:02:00,56.0,49.0,30.32,North,-999,-999.0,-999.0,77,-99.99,,,-99.99,,2013-09-03 11:02:00,
2013-09-03 05:23:00,54.0,47.0,30.32,North,-999,-999.0,-999.0,77,-99.99,,,-99.99,,2013-09-03 11:23:00,
2013-09-03 05:33:00,54.0,47.0,30.32,North,-999,-999.0,-999.0,77,-99.99,,,-99.99,,2013-09-03 11:33:00,
2013-09-03 05:52:00,55.0,47.0,30.32,North,-999,-999.0,-999.0,72,-99.99,,,-99.99,,2013-09-03 11:52:00,
2013-09-03 06:02:00,55.0,47.0,30.32,North,-999,-999.0,-999.0,72,-99.99,,,-99.99,,2013-09-03 12:02:00,
2013-09-03 06:21:00,59.0,46.0,30.33,North,-999,-999.0,-999.0,61,-99.99,,,-99.99,,2013-09-03 12:21:00,
2013-09-03 06:31:00,59.0,46.0,30.33,North,-999,-999.0,-999.0,61,-99.99,,,-99.99,,2013-09-03 12:31:00,
2013-09-03 06:52:00,58.0,46.0,30.34,North,-999,-999.0,-999.0,65,-99.99,,,-99.99,,2013-09-03 12:52:00,
2013-09-03 07:21:00,54.0,47.0,30.35,North,-999,-999.0,-999.0,77,-99.99,,,-99.99,,2013-09-03 13:21:00,
2013-09-03 07:52:00,58.0,48.0,30.35,North,-999,-999.0,-999.0,69,-99.99,,,-99.99,,2013-09-03 13:52:00,
2013-09-03 08:01:00,58.0,48.0,30.35,North,-999,-999.0,-999.0,69,-99.99,,,-99.99,,2013-09-03 14:01:00,
2013-09-03 08:21:00,63.0,49.0,30.35,North,-999,-999.0,-999.0,60,-99.99,,,-99.99,,2013-09-03 14:21:00,
2013-09-03 08:32:00,63.0,49.0,30.35,North,-999,-999.0,-999.0,60,-99.99,,,-99.99,,2013-09-03 14:32:00,
2013-09-03 08:52:00,65.0,49.0,30.35,North,-999,-999.0,-999.0,55,-99.99,,,-99.99,,2013-09-03 14:52:00,
2013-09-03 09:02:00,65.0,49.0,30.35,North,-999,-999.0,-999.0,55,-99.99,,,-99.99,,2013-09-03 15:02:00,
2013-09-03 09:22:00,69.0,49.0,30.36,North,-999,-999.0,-999.0,48,-99.99,,,-99.99,,2013-09-03 15:22:00,
2013-09-03 09:34:00,69.0,49.0,30.36,North,-999,-999.0,-999.0,48,-99.99,,,-99.99,,2013-09-03 15:34:00,
2013-09-03 09:54:00,71.0,47.0,30.36,North,-999,-999.0,-999.0,41,-99.99,,,-99.99,,2013-09-03 15:54:00,
2013-09-03 10:04:00,71.0,47.0,30.36,North,-999,-999.0,-999.0,41,-99.99,,,-99.99,,2013-09-03 16:04:00,
2013-09-03 10:24:00,73.0,47.0,30.36,North,-999,-999.0,-999.0,40,-99.99,,,-99.99,,2013-09-03 16:24:00,
2013-09-03 10:33:00,73.0,47.0,30.36,North,-999,-999.0,-999.0,40,-99.99,,,-99.99,,2013-09-03 16:33:00,
2013-09-03 10:54:00,76.0,45.0,30.35,North,-999,-999.0,-999.0,33,-99.99,,,-99.99,,2013-09-03 16:54:00,
2013-09-03 11:03:00,76.0,45.0,30.35,North,-999,-999.0,-999.0,33,-99.99,,,-99.99,,2013-09-03 17:03:00,
2013-09-03 11:23:00,76.0,44.0,30.35,North,-999,-999.0,-999.0,32,-99.99,,,-99.99,,2013-09-03 17:23:00,
2013-09-03 11:34:00,76.0,44.0,30.35,North,-999,-999.0,-999.0,32,-99.99,,,-99.99,,2013-09-03 17:34:00,
2013-09-03 11:52:00,79.0,42.0,30.35,North,-999,-999.0,-999.0,27,-99.99,,,-99.99,,2013-09-03 17:52:00,
2013-09-03 12:02:00,79.0,42.0,30.35,North,-999,-999.0,-999.0,27,-99.99,,,-99.99,,2013-09-03 18:02:00,
2013-09-03 12:22:00,79.0,41.0,30.34,North,-999,-999.0,-999.0,25,-99.99,,,-99.99,,2013-09-03 18:22:00,
2013-09-03 12:32:00,79.0,41.0,30.34,North,-999,-999.0,-999.0,25,-99.99,,,-99.99,,2013-09-03 18:32:00,
2013-09-03 12:52:00,80.0,41.0,30.34,North,-999,-999.0,-999.0,25,-99.99,,,-99.99,,2013-09-03 18:52:00,
2013-09-03 13:02:00,80.0,41.0,30.34,North,-999,-999.0,-999.0,25,-99.99,,,-99.99,,2013-09-03 19:02:00,
2013-09-03 13:22:00,82.0,40.0,30.33,North,-999,-999.0,-999.0,22,-99.99,,,-99.99,,2013-09-03 19:22:00,
2013-09-03 13:32:00,82.0,40.0,30.33,North,-999,-999.0,-999.0,22,-99.99,,,-99.99,,2013-09-03 19:32:00,
2013-09-03 13:52:00,81.0,39.0,30.33,North,-999,-999.0,-999.0,21,-99.99,,,-99.99,,2013-09-03 19:52:00,
2013-09-03 14:02:00,81.0,39.0,30.33,North,-999,-999.0,-999.0,21,-99.99,,,-99.99,,2013-09-03 20:02:00,
2013-09-03 14:22:00,82.0,37.0,30.32,North,-999,-999.0,-999.0,20,-99.99,,,-99.99,,2013-09-03 20:22:00,
2013-09-03 14:32:00,82.0,37.0,30.32,North,-999,-999.0,-999.0,20,-99.99,,,-99.99,,2013-09-03 20:32:00,
2013-09-03 14:52:00,83.0,38.0,30.31,North,-999,-999.0,-999.0,20,-99.99,,,-99.99,,2013-09-03 20:52:00,
2013-09-03 15:01:00,83.0,38.0,30.31,North,-999,-999.0,-999.0,20,-99.99,,,-99.99,,2013-09-03 21:01:00,
2013-09-03 15:22:00,81.0,38.0,30.30,North,-999,-999.0,-999.0,21,-99.99,,,-99.99,,2013-09-03 21:22:00,
2013-09-03 15:34:00,81.0,38.0,30.30,North,-999,-999.0,-999.0,21,-99.99,,,-99.99,,2013-09-03 21:34:00,
2013-09-03 15:54:00,85.0,37.0,30.30,North,-999,-999.0,-999.0,18,-99.99,,,-99.99,,2013-09-03 21:54:00,
2013-09-03 16:04:00,85.0,37.0,30.30,North,-999,-999.0,-999.0,18,-99.99,,,-99.99,,2013-09-03 22:04:00,
2013-09-03 16:23:00,82.0,39.0,30.30,North,-999,-999.0,-999.0,21,-99.99,,,-99.99,,2013-09-03 22:23:00,
2013-09-03 16:34:00,82.0,39.0,30.30,North,-999,-999.0,-999.0,21,-99.99,,,-99.99,,2013-09-03 22:34:00,
2013-09-03 16:52:00,78.0,42.0,30.31,North,-999,-999.0,-999.0,27,-99.99,,,-99.99,,2013-09-03 22:52:00,
2013-09-03 17:04:00,78.0,42.0,30.31,North,-999,-999.0,-999.0,27,-99.99,,,-99.99,,2013-09-03 23:04:00,
2013-09-03 17:22:00,78.0,41.0,30.31,North,-999,-999.0,-999.0,27,-99.99,,,-99.99,,2013-09-03 23:22:00,
2013-09-03 17:30:00,83.0,37.0,30.31,North,-999,-999.0,-999.0,19,-99.99,,,-99.99,,2013-09-03 23:30:00,
2013-09-03 17:34:00,78.0,41.0,30.31,North,-999,-999.0,-999.0,27,-99.99,,,-99.99,,2013-09-03 23:34:00,
2013-09-03 17:54:00,83.0,37.0,30.31,North,-999,-999.0,-999.0,19,-99.99,,,-99.99,,2013-09-03 23:54:00,
2013-09-03 18:02:00,83.0,37.0,30.31,North,-999,-999.0,-999.0,19,-99.99,,,-99.99,,2013-09-04 00:02:00,
2013-09-03 18:12:00,83.0,37.0,30.31,North,-999,-999.0,-999.0,19,-99.99,,,-99.99,,2013-09-04 00:12:00,
2013-09-03 18:22:00,83.0,37.0,30.31,North,-999,-999.0,-999.0,19,-99.99,,,-99.99,,2013-09-04 00:22:00,
2013-09-03 18:52:00,80.0,40.0,30.30,North,-999,-999.0,-999.0,24,-99.99,,,-99.99,,2013-09-04 00:52:00,
2013-09-03 19:01:00,80.0,40.0,30.30,North,-999,-999.0,-999.0,24,-99.99,,,-99.99,,2013-09-04 01:01:00,
2013-09-03 19:22:00,78.0,40.0,30.30,North,-999,-999.0,-999.0,26,-99.99,,,-99.99,,2013-09-04 01:22:00,
2013-09-03 19:32:00,78.0,40.0,30.30,North,-999,-999.0,-999.0,26,-99.99,,,-99.99,,2013-09-04 01:32:00,
2013-09-03 19:53:00,75.0,42.0,30.31,North,-999,-999.0,-999.0,30,-99.99,,,-99.99,,2013-09-04 01:53:00,
2013-09-03 20:02:00,75.0,42.0,30.31,North,-999,-999.0,-999.0,30,-99.99,,,-99.99,,2013-09-04 02:02:00,
2013-09-03 20:22:00,71.0,43.0,30.32,North,-999,-999.0,-999.0,36,-99.99,,,-99.99,,2013-09-04 02:22:00,
2013-09-03 20:32:00,71.0,43.0,30.32,North,-999,-999.0,-999.0,36,-99.99,,,-99.99,,2013-09-04 02:32:00,
2013-09-03 20:52:00,70.0,43.0,30.33,North,-999,-999.0,-999.0,38,-99.99,,,-99.99,,2013-09-04 02:52:00,
2013-09-03 21:03:00,70.0,43.0,30.33,North,-999,-999.0,-999.0,38,-99.99,,,-99.99,,2013-09-04 03:03:00,
2013-09-03 21:22:00,70.0,43.0,30.34,North,-999,-999.0,-999.0,38,-99.99,,,-99.99,,2013-09-04 03:22:00,
2013-09-03 21:35:00,70.0,43.0,30.34,North,-999,-999.0,-999.0,38,-99.99,,,-99.99,,2013-09-04 03:35:00,
2013-09-03 21:54:00,66.0,49.0,30.35,North,-999,-999.0,-999.0,53,-99.99,,,-99.99,,2013-09-04 03:54:00,
2013-09-03 22:04:00,66.0,49.0,30.35,North,-999,-999.0,-999.0,53,-99.99,,,-99.99,,2013-09-04 04:04:00,
2013-09-03 22:24:00,65.0,51.0,30.36,North,-999,-999.0,-999.0,59,-99.99,,,-99.99,,2013-09-04 04:24:00,
2013-09-03 22:33:00,65.0,51.0,30.36,North,-999,-999.0,-999.0,59,-99.99,,,-99.99,,2013-09-04 04:33:00,
2013-09-03 22:54:00,65.0,49.0,30.36,North,-999,-999.0,-999.0,56,-99.99,,,-99.99,,2013-09-04 04:54:00,
2013-09-03 23:03:00,65.0,49.0,30.36,North,-999,-999.0,-999.0,56,-99.99,,,-99.99,,2013-09-04 05:03:00,
2013-09-03 23:23:00,67.0,48.0,30.37,North,-999,-999.0,-999.0,50,-99.99,,,-99.99,,2013-09-04 05:23:00,
2013-09-03 23:34:00,67.0,48.0,30.37,North,-999,-999.0,-999.0,50,-99.99,,,-99.99,,2013-09-04 05:34:00,
2013-09-03 23:53:00,65.0,49.0,30.36,North,-999,-999.0,-999.0,57,-99.99,,,-99.99,,2013-09-04 05:53:00,